TimeMDT,TemperatureF,Dew PointF,Humidity,Sea Level PressureIn,VisibilityMPH,Wind Direction,Wind SpeedMPH,Gust SpeedMPH,PrecipitationIn,Events,Conditions,WindDirDegrees,DateUTC
12:56 AM,35.1,28.0,76,30.37,-9999.0,SW,9.2,-,N/A,,Clear,220,2013-10-18 06:56:00
1:56 AM,35.1,27.0,72,30.37,10.0,SW,10.4,-,N/A,,Partly Cloudy,230,2013-10-18 07:56:00
2:56 AM,33.1,27.0,78,30.36,10.0,SW,5.8,-,N/A,,Clear,220,2013-10-18 08:56:00
3:56 AM,34.0,27.0,75,30.35,10.0,SW,8.1,-,N/A,,Overcast,220,2013-10-18 09:56:00
4:56 AM,33.1,28.0,82,30.33,10.0,SSW,8.1,-,N/A,,Overcast,200,2013-10-18 10:56:00
5:56 AM,32.0,27.0,82,30.33,10.0,SSW,9.2,-,N/A,,Clear,210,2013-10-18 11:56:00
6:56 AM,30.0,25.0,82,30.32,10.0,SSW,9.2,-,N/A,,Clear,200,2013-10-18 12:56:00
7:56 AM,28.9,25.0,85,30.30,10.0,South,10.4,-,N/A,,Clear,190,2013-10-18 13:56:00
8:56 AM,37.0,27.0,67,30.27,10.0,SSW,15.0,-,N/A,,Clear,210,2013-10-18 14:56:00
9:56 AM,42.1,28.9,60,30.25,10.0,SSW,18.4,-,N/A,,Clear,200,2013-10-18 15:56:00
10:56 AM,46.9,28.9,50,30.23,10.0,SSW,18.4,28.8,N/A,,Clear,210,2013-10-18 16:56:00
11:56 AM,51.1,30.0,44,30.22,10.0,SSW,17.3,-,N/A,,Clear,210,2013-10-18 17:56:00
12:56 PM,53.1,30.0,41,30.20,10.0,SW,19.6,-,N/A,,Clear,220,2013-10-18 18:56:00
1:56 PM,55.0,30.0,38,30.17,10.0,SW,18.4,21.9,N/A,,Clear,220,2013-10-18 19:56:00
2:56 PM,57.9,28.9,33,30.14,10.0,SW,20.7,-,N/A,,Clear,220,2013-10-18 20:56:00
3:56 PM,57.0,28.0,33,30.12,10.0,SSW,17.3,28.8,N/A,,Clear,210,2013-10-18 21:56:00
4:56 PM,57.0,28.9,34,30.12,10.0,SSW,17.3,-,N/A,,Clear,200,2013-10-18 22:56:00
5:56 PM,54.0,30.0,40,30.11,10.0,SSW,16.1,-,N/A,,Clear,200,2013-10-18 23:56:00
6:56 PM,48.0,30.0,50,30.12,10.0,SSW,10.4,-,N/A,,Clear,200,2013-10-19 00:56:00
7:56 PM,48.9,30.0,48,30.11,10.0,SSW,13.8,-,N/A,,Clear,210,2013-10-19 01:56:00
8:56 PM,43.0,30.0,60,30.10,10.0,South,11.5,-,N/A,,Clear,180,2013-10-19 02:56:00
9:56 PM,41.0,28.9,62,30.10,10.0,South,8.1,-,N/A,,Clear,190,2013-10-19 03:56:00
10:56 PM,37.0,28.0,70,30.10,10.0,South,9.2,-,N/A,,Clear,190,2013-10-19 04:56:00
11:56 PM,39.9,28.9,65,30.08,10.0,South,12.7,-,N/A,,Clear,190,2013-10-19 05:56:00